[[{"header":{"parameterUnit":"m.s-1","parameterCategory":1,"la1":30.2991,"la2":30.254,"lo1":-89.0895,"lo2":-89.0444,"dy":0.0017,"dx":0.0017,"nx":28,"ny":28,"refTime":"2024-03-29T21:00:00:Z","depth":0,"parameterNumber":2,"parameterNumberName":"U-component_of_WINDS"},"data":[0,0,0,0,0,0,0,0,0,0,0,0,0,0,0,0,0,0,0,0,0,0,0,0,0,0,0,0,0,0,0,0,0,0,0,0,0,0,0,0,0,0,0,0,0,0,0,0,0,0,0,0,0,0,0,0,0,0,-0.6347,-0.6347,0,-0.6332,-0.6331,-0.6331,-0.6312,-0.6311,-0.6311,-0.6311,-0.6296,-0.6296,-0.6296,0,0,0,0,0,0,0,0,0,0,0,0,0,-0.6361,-0.6361,-0.6347,-0.6347,-0.6347,-0.6332,-0.6331,-0.6331,-0.6312,-0.6311,-0.6311,-0.6311,-0.6296,-0.6296,-0.6296,0,0,0,0,0,0,0,0,0,0,0,0,0,-0.6351,-0.6361,-0.6347,-0.6335,-0.6334,-0.6332,-0.6331,-0.6331,-0.6312,-0.6311,-0.6311,-0.631,-0.6296,-0.6296,-0.6296,-0.6305,0,0,-0.6296,-0.6295,0,0,0,0,0,0,0,0,-0.6352,-0.6351,-0.6337,-0.6336,-0.6334,-0.6323,-0.6331,-0.6322,-0.6312,-0.632,-0.6311,-0.631,-0.6306,-0.6305,-0.6303,-0.6304,-0.6303,-0.6295,-0.6295,-0.6295,-0.6295,0,0,0,0,0,0,0,-0.6352,-0.6351,-0.6341,-0.6337,-0.6335,-0.6331,-0.6329,-0.6329,-0.6316,-0.6319,-0.6318,-0.6316,-0.6305,-0.6303,-0.6302,-0.6303,-0.6295,-0.6295,-0.6295,-0.6295,-0.631,-0.6311,0,0,0,0,0,0,-0.6355,-0.6352,-0.6341,-0.634,-0.6342,-0.6331,-0.6329,-0.6327,-0.6316,-0.6313,-0.6317,-0.6316,-0.6303,-0.6302,-0.6302,-0.6311,-0.6295,-0.6295,-0.6295,-0.631,-0.631,-0.6311,0,0,0,0,0,0,-0.6355,-0.6354,-0.6342,-0.6346,-0.6344,-0.6331,-0.633,-0.6327,-0.6325,-0.6314,-0.6311,-0.6317,-0.6303,-0.6302,-0.6304,-0.631,-0.6295,-0.6295,-0.6309,-0.631,-0.6311,-0.6329,0,0,0,0,0,0,-0.6355,-0.6354,-0.6357,-0.6346,-0.6344,-0.6344,-0.633,-0.6327,-0.6325,-0.6323,-0.6314,-0.6312,-0.6303,-0.6304,-0.6304,-0.631,-0.6295,-0.6309,-0.631,-0.631,-0.6328,-0.6331,-0.6333,0,0,0,0,0,-0.6356,-0.6363,-0.6357,-0.6356,-0.6347,-0.6345,-0.6343,-0.6333,-0.6326,-0.6328,-0.6321,-0.6312,-0.631,-0.6305,-0.6304,-0.631,-0.6308,-0.6309,-0.631,-0.6327,-0.633,-0.6333,0,0,0,0,0,0,-0.6376,-0.6362,-0.6355,-0.6358,-0.6353,-0.6341,-0.6345,-0.6336,-0.6333,-0.6331,-0.6318,-0.6316,-0.632,-0.6315,-0.631,-0.6318,-0.6308,-0.6309,-0.6321,-0.6323,-0.6326,-0.6327,-0.6295,0,0,0,0,0,-0.6381,-0.6379,-0.6367,-0.6372,-0.6369,-0.6357,-0.6356,-0.6348,-0.6342,-0.6339,-0.6332,-0.6327,-0.6325,-0.6324,-0.6321,-0.6327,-0.6325,-0.6331,-0.6334,-0.6336,-0.6337,-0.6339,-0.6342,-0.6315,-0.6315,-0.6314,0,0,-0.639,-0.6383,-0.6383,-0.6375,-0.637,-0.6369,-0.6356,-0.6355,-0.6355,-0.634,-0.6341,-0.6335,-0.6329,-0.6333,-0.6334,-0.6329,-0.6344,-0.6337,-0.6339,-0.6339,-0.6341,-0.6343,-0.6346,-0.6315,-0.6315,-0.6315,0,0,-0.6408,-0.6402,-0.6405,-0.64,-0.6392,-0.6384,-0.6385,-0.6374,-0.637,-0.6371,-0.6359,-0.6359,-0.6356,-0.6351,-0.6349,-0.6364,-0.6356,-0.6364,-0.6376,-0.6379,-0.6381,-0.6383,-0.6389,-0.6391,-0.6365,-0.6365,-0.6365,0,-0.6422,-0.642,-0.6408,-0.6408,-0.6405,-0.6391,-0.6394,-0.639,-0.6382,-0.638,-0.6374,-0.637,-0.6364,-0.6367,-0.6371,-0.6369,-0.637,-0.6365,-0.6382,-0.6384,-0.6385,-0.639,-0.6393,-0.6366,-0.6366,-0.6366,-0.6366,0,-0.6437,-0.6436,-0.6439,-0.6431,-0.6428,-0.643,-0.6419,-0.6418,-0.641,-0.6403,-0.6405,-0.6397,-0.6393,-0.6393,-0.6386,-0.6395,-0.6392,-0.6384,-0.6374,-0.6389,-0.6394,-0.6396,-0.6368,-0.6367,-0.6367,-0.6367,0,0,-0.6466,-0.6451,-0.6453,-0.6449,-0.6439,-0.6438,-0.6439,-0.6435,-0.6434,-0.6429,-0.643,-0.6428,-0.642,-0.6417,-0.641,-0.6412,-0.6425,-0.6404,-0.6404,-0.6408,-0.6434,-0.644,-0.6443,-0.6419,-0.642,-0.642,-0.6435,0,-0.6482,-0.6483,-0.6472,-0.6476,-0.6475,-0.6461,-0.6463,-0.6457,-0.645,-0.6449,-0.6441,-0.644,-0.643,-0.6429,-0.643,-0.6423,-0.643,-0.6422,-0.642,-0.642,-0.6422,-0.6445,-0.6451,-0.6466,-0.6437,-0.6437,-0.6437,0,-0.6501,-0.6496,-0.65,-0.6489,-0.6489,-0.649,-0.6485,-0.6483,-0.6476,-0.6471,-0.6468,-0.6459,-0.646,-0.645,-0.6451,-0.6446,-0.6444,-0.6441,-0.6441,-0.644,-0.643,-0.6445,-0.647,-0.6472,-0.644,-0.644,-0.644,0,-0.6522,-0.6517,-0.6518,-0.6515,-0.6503,-0.6504,-0.65,-0.6492,-0.649,-0.6486,-0.6484,-0.648,-0.6478,-0.6476,-0.6466,-0.646,-0.6468,-0.6457,-0.6464,-0.6464,-0.6466,-0.6466,-0.6492,-0.6466,-0.6466,-0.6466,-0.6466,0,-0.6541,-0.6544,-0.6528,-0.6528,-0.6531,-0.6519,-0.6522,-0.6516,-0.651,-0.6509,-0.6497,-0.6498,-0.6485,-0.6483,-0.6476,-0.6478,-0.6477,-0.6473,-0.6471,-0.6474,-0.6475,-0.6473,-0.6472,-0.6466,-0.6466,-0.6466,-0.6466,0,-0.6565,-0.6554,-0.6555,-0.6543,-0.6541,-0.6543,-0.6533,-0.6534,-0.6526,-0.6526,-0.6526,-0.6514,-0.6512,-0.6502,-0.6498,-0.6492,-0.6497,-0.6493,-0.6499,-0.6498,-0.6505,-0.6504,-0.653,-0.6533,-0.6505,-0.6506,-0.6506,0,-0.6578,-0.6579,-0.6568,-0.6566,-0.6562,-0.656,-0.6558,-0.6546,-0.6544,-0.6536,-0.6538,-0.6534,-0.6531,-0.6529,-0.652,-0.6517,-0.6512,-0.6522,-0.6512,-0.6515,-0.6512,-0.6512,-0.6512,-0.6524,-0.6524,-0.6524,-0.6525,0,-0.6601,-0.6596,-0.6593,-0.6587,-0.6585,-0.658,-0.6575,-0.6575,-0.6562,-0.656,-0.6558,-0.6555,-0.655,-0.6547,-0.6542,-0.6538,-0.6529,-0.6528,-0.6529,-0.6532,-0.6536,-0.6534,-0.6505,-0.6527,-0.6527,-0.6527,-0.6527,-0.6526,-0.662,-0.6621,-0.6613,-0.6609,-0.6604,-0.66,-0.6599,-0.6592,-0.6589,-0.6584,-0.6577,-0.6576,-0.6569,-0.6561,-0.6557,-0.6556,-0.6551,-0.6553,-0.6553,-0.6554,-0.6556,-0.6536,-0.6555,-0.6555,-0.6555,-0.6555,-0.6555,0,-0.6643,-0.6637,-0.6634,-0.6627,-0.6624,-0.6616,-0.661,-0.6608,-0.6607,-0.6601,-0.6598,-0.6595,-0.6592,-0.6583,-0.6579,-0.658,-0.6576,-0.6579,-0.6579,-0.6578,-0.656,-0.6559,-0.6583,-0.6583,-0.6583,-0.6583,-0.6583,-0.6583,-0.6655,-0.6655,-0.6649,-0.6647,-0.6641,-0.6639,-0.6636,-0.6632,-0.6627,-0.6624,-0.6621,-0.6615,-0.6608,-0.6604,-0.6601,-0.6598,-0.6597,-0.6602,-0.6598,-0.6582,-0.6579,-0.6577,-0.6576,-0.6602,-0.6602,-0.6616,-0.6616,-0.6617]},{"header":{"parameterUnit":"m.s-1","parameterCategory":1,"la1":30.2991,"la2":30.254,"lo1":-89.0895,"lo2":-89.0444,"dy":0.0017,"dx":0.0017,"nx":28,"ny":28,"refTime":"2024-03-29T21:00:00:Z","depth":0,"parameterNumber":3,"parameterNumberName":"V-component_of_WINDS"},"data":[0,0,0,0,0,0,0,0,0,0,0,0,0,0,0,0,0,0,0,0,0,0,0,0,0,0,0,0,0,0,0,0,0,0,0,0,0,0,0,0,0,0,0,0,0,0,0,0,0,0,0,0,0,0,0,0,0,0,2.6513,2.6513,0,2.6548,2.6548,2.6549,2.6521,2.652,2.6519,2.6518,2.6552,2.6554,2.6556,0,0,0,0,0,0,0,0,0,0,0,0,0,2.642,2.6422,2.6513,2.6513,2.6514,2.6548,2.6548,2.6549,2.6522,2.652,2.6519,2.6517,2.6552,2.6554,2.6556,0,0,0,0,0,0,0,0,0,0,0,0,0,2.6458,2.6423,2.6513,2.6504,2.6504,2.6548,2.6548,2.6549,2.6522,2.652,2.6518,2.6517,2.6551,2.6554,2.6557,2.661,0,0,2.6566,2.6567,0,0,0,0,0,0,0,0,2.6456,2.6462,2.6505,2.6505,2.6504,2.6529,2.6528,2.657,2.6522,2.6515,2.6518,2.6516,2.6546,2.6549,2.6559,2.6612,2.6613,2.6566,2.6568,2.6569,2.657,0,0,0,0,0,0,0,2.6454,2.646,2.6527,2.6506,2.6505,2.6498,2.6502,2.6536,2.654,2.6515,2.6514,2.6518,2.6545,2.6557,2.656,2.6614,2.6566,2.6569,2.6571,2.6572,2.6712,2.6714,0,0,0,0,0,0,2.6452,2.6458,2.6525,2.6528,2.6476,2.6501,2.6505,2.6523,2.6539,2.654,2.652,2.6517,2.6552,2.6556,2.6561,2.6625,2.6569,2.6572,2.6574,2.6711,2.6713,2.6715,0,0,0,0,0,0,2.645,2.6458,2.6524,2.6492,2.65,2.6505,2.6524,2.6524,2.6536,2.6542,2.6543,2.6531,2.6551,2.6557,2.6598,2.6626,2.6573,2.6576,2.6708,2.6711,2.6714,2.6754,0,0,0,0,0,0,2.6448,2.6458,2.6479,2.6493,2.6502,2.6562,2.6526,2.6526,2.6541,2.6538,2.6553,2.6554,2.655,2.6594,2.6601,2.6629,2.6578,2.6706,2.671,2.6713,2.675,2.6758,2.6764,0,0,0,0,0,2.6444,2.6488,2.648,2.6488,2.6528,2.6563,2.6568,2.6564,2.6543,2.6564,2.6569,2.6553,2.6622,2.6599,2.6607,2.6636,2.6704,2.6708,2.6713,2.6747,2.6756,2.6764,0,0,0,0,0,0,2.6476,2.649,2.6481,2.6531,2.6546,2.6559,2.6585,2.6574,2.6595,2.6591,2.6583,2.6587,2.6631,2.6637,2.6611,2.6689,2.666,2.6666,2.6683,2.6692,2.6699,2.6696,2.6581,0,0,0,0,0,2.6489,2.6517,2.6527,2.657,2.6578,2.658,2.6595,2.659,2.6606,2.6612,2.6619,2.6634,2.6659,2.6676,2.6699,2.6751,2.6754,2.6775,2.6782,2.6788,2.6793,2.6821,2.6831,2.6729,2.6729,2.6729,0,0,2.6516,2.6527,2.6545,2.6577,2.6588,2.6617,2.6586,2.6617,2.6638,2.6616,2.6657,2.6663,2.6679,2.6726,2.6747,2.6733,2.6822,2.6793,2.6798,2.68,2.6826,2.6836,2.6845,2.6732,2.6732,2.6731,0,0,2.6579,2.659,2.6628,2.664,2.6658,2.6659,2.6667,2.6682,2.6685,2.6725,2.671,2.6734,2.6777,2.6789,2.6801,2.687,2.6856,2.6877,2.6915,2.6942,2.695,2.6957,2.6981,2.699,2.6883,2.6883,2.6883,0,2.661,2.6653,2.6648,2.6681,2.6695,2.6677,2.6715,2.6726,2.6751,2.6761,2.6745,2.6799,2.6808,2.6858,2.6875,2.6885,2.6895,2.6876,2.6949,2.6956,2.6963,2.6986,2.6995,2.6885,2.6885,2.6885,2.6884,0,2.669,2.672,2.6748,2.6773,2.679,2.6825,2.6824,2.6843,2.6836,2.6839,2.688,2.6891,2.6916,2.6928,2.6921,2.6977,2.6967,2.695,2.6921,2.6975,2.6997,2.7005,2.6889,2.6888,2.6887,2.6887,0,0,2.6775,2.6796,2.6806,2.6818,2.6836,2.6859,2.6892,2.6918,2.6934,2.6951,2.6979,2.7016,2.7,2.7014,2.7009,2.7033,2.7086,2.7013,2.7013,2.7026,2.7148,2.7161,2.7171,2.7078,2.7079,2.7081,2.7147,0,2.6839,2.6899,2.6895,2.6951,2.6978,2.6962,2.6992,2.7006,2.7009,2.7033,2.7036,2.7062,2.704,2.7048,2.7071,2.7075,2.7111,2.707,2.7103,2.7105,2.71,2.7183,2.7196,2.7258,2.7155,2.7157,2.7158,0,2.6922,2.6943,2.7002,2.7016,2.7028,2.7055,2.7078,2.71,2.7116,2.7116,2.7132,2.7123,2.7157,2.7127,2.7173,2.7145,2.7159,2.7163,2.7165,2.7168,2.7135,2.7188,2.7277,2.7287,2.7171,2.717,2.7169,0,2.6978,2.7021,2.7062,2.7071,2.7089,2.7109,2.7117,2.7131,2.7146,2.7166,2.7176,2.7199,2.7212,2.723,2.7228,2.7206,2.7275,2.7244,2.7276,2.7276,2.7291,2.7291,2.7385,2.73,2.73,2.73,2.7299,0,2.705,2.7087,2.7087,2.7112,2.7153,2.7148,2.7188,2.7194,2.7207,2.7232,2.7219,2.7243,2.7239,2.7263,2.7261,2.7299,2.7305,2.7306,2.7305,2.7308,2.7308,2.7316,2.7312,2.7302,2.7301,2.7301,2.7301,0,2.712,2.7121,2.7165,2.7178,2.7182,2.7212,2.7223,2.7247,2.7249,2.7282,2.7289,2.7293,2.732,2.7319,2.7351,2.7349,2.7397,2.7391,2.7392,2.7391,2.7423,2.742,2.7526,2.7539,2.7446,2.7446,2.7447,0,2.7166,2.7194,2.7211,2.7227,2.7237,2.7264,2.728,2.7276,2.7293,2.7313,2.7334,2.7361,2.7382,2.7427,2.7432,2.7456,2.745,2.7486,2.7454,2.7455,2.7451,2.7449,2.7452,2.7492,2.7493,2.7494,2.7495,0,2.7248,2.7247,2.7271,2.7296,2.7315,2.7334,2.7351,2.7365,2.7363,2.7383,2.7412,2.7428,2.746,2.7487,2.751,2.7517,2.7506,2.7505,2.7513,2.7516,2.7516,2.7516,2.7409,2.7502,2.7501,2.7501,2.75,2.75,2.7307,2.7331,2.7347,2.7374,2.7387,2.7403,2.7426,2.7432,2.7456,2.7482,2.7478,2.751,2.7525,2.7555,2.7565,2.7589,2.7576,2.7589,2.7592,2.7595,2.7599,2.7512,2.7593,2.7593,2.7593,2.7593,2.7592,0,2.7388,2.7398,2.7423,2.7448,2.7469,2.7457,2.7475,2.7494,2.7522,2.7537,2.7559,2.7591,2.7617,2.7624,2.7649,2.7667,2.7663,2.7674,2.7673,2.7675,2.7609,2.7599,2.7677,2.7677,2.7677,2.7677,2.7677,2.7677,2.7433,2.7474,2.7475,2.7522,2.753,2.7562,2.7574,2.7589,2.7601,2.7639,2.766,2.7665,2.7677,2.7702,2.7725,2.7727,2.7736,2.775,2.7749,2.7688,2.7679,2.7671,2.7662,2.7752,2.7752,2.7813,2.7814,2.7814]}]]